Wind_Speed
35 36 37 38 39 39 39 39 40 40 40 41 41 42 42 41 41 41 41 41 41 41 41 41 40 41 40 40 41 41 41 41 41 40 41 41 41 41 41 41 41 40 39
36 36 37 37 38 39 39 40 40 41 40 40 41 41 42 42 41 41 42 41 41 42 41 41 42 42 42 42 42 42 42 42 42 42 41 41 41 41 41 40 40 39 38
35 36 37 38 38 38 39 40 40 40 40 40 40 41 41 41 41 41 41 41 42 42 41 41 42 43 43 43 43 43 42 42 42 41 41 41 41 40 40 40 39 39 39
34 35 36 36 37 37 38 39 39 40 40 40 39 40 41 41 41 41 41 41 41 41 41 41 42 43 43 43 43 42 42 42 41 41 40 40 40 40 40 40 39 39 39
34 35 36 36 37 37 37 37 38 39 39 39 40 40 40 41 41 41 41 41 40 40 41 41 42 42 42 42 41 41 41 41 40 40 40 40 39 40 40 40 39 38 38
34 35 35 36 36 36 36 37 38 38 38 39 39 39 38 38 39 40 40 41 40 40 41 41 41 41 40 39 39 39 40 39 39 39 39 39 39 38 39 39 39 38 38
32 33 34 35 36 36 36 36 37 37 37 37 38 38 37 37 38 38 39 40 40 40 41 41 40 39 39 38 38 38 39 39 39 38 38 38 38 38 39 38 38 38 37
32 32 33 34 35 35 35 36 36 36 36 36 37 37 38 39 39 40 39 39 39 40 40 39 39 38 38 38 38 38 38 38 39 39 39 39 39 38 38 38 37 36 36
31 32 32 32 33 34 34 35 35 36 36 36 36 37 37 38 39 39 39 38 38 38 38 38 38 38 38 38 38 38 38 38 38 39 39 39 39 38 38 37 37 36 36
31 32 32 32 33 33 33 34 34 35 36 36 36 37 37 37 37 37 38 38 38 37 37 37 37 37 37 37 37 37 37 37 38 38 38 38 39 38 37 37 36 36 35
30 31 32 32 32 33 33 33 33 33 34 35 35 36 36 36 36 36 36 37 37 37 36 36 36 36 36 37 37 37 36 36 36 37 37 36 36 36 36 35 35 35 35
29 30 30 31 31 32 32 32 33 32 33 34 34 34 34 35 35 36 36 36 36 36 35 35 35 35 35 35 36 36 35 35 35 35 35 35 34 34 34 34 34 34 34
29 30 29 30 30 31 31 31 32 32 32 32 33 33 33 34 34 34 35 35 34 35 34 34 34 35 35 35 35 35 34 34 34 34 33 33 32 32 32 32 32 33 32
29 29 29 29 30 30 30 30 31 31 31 31 31 32 33 33 33 33 33 33 33 33 33 33 33 33 33 33 33 33 33 33 33 32 31 30 30 30 30 30 30 31 30
29 29 29 29 30 30 30 30 31 31 31 31 32 32 31 31 31 32 32 32 32 32 32 31 31 30 31 31 31 31 31 31 31 30 30 29 29 28 28 28 28 28 29
28 28 28 29 29 29 29 30 30 30 31 31 31 31 30 30 31 31 31 32 32 31 30 30 29 29 30 30 30 30 30 30 29 28 28 28 27 27 26 26 26 27 26
26 27 27 28 28 29 29 29 30 30 31 30 30 30 29 29 29 29 29 29 29 29 29 28 28 29 29 28 28 28 28 28 27 27 26 26 25 25 24 24 24 25 24
25 26 27 27 27 28 28 28 28 28 29 29 29 29 29 28 28 28 28 28 27 27 27 27 28 28 27 27 27 26 26 26 26 25 25 24 24 23 23 23 23 23 23
25 25 26 27 27 27 28 28 28 28 28 28 28 28 28 28 27 27 27 27 26 26 26 27 27 26 26 26 25 25 24 24 24 24 24 23 23 23 23 23 23 23 23
26 26 27 27 27 27 28 28 28 27 27 27 27 27 27 27 26 26 26 26 26 25 25 26 25 25 24 24 24 23 23 22 23 23 22 22 22 22 22 22 22 22 22
26 27 27 27 27 27 27 27 27 26 26 26 26 26 26 26 25 25 25 25 24 24 24 25 24 23 23 23 23 22 21 21 21 21 20 21 21 21 22 22 22 22 21
26 26 26 26 26 26 26 26 27 26 27 27 26 26 25 25 25 25 24 24 24 24 24 23 22 22 21 21 21 20 20 20 20 20 20 20 20 20 21 21 21 21 20
25 26 26 25 25 25 25 26 26 26 26 26 26 25 25 25 25 24 23 23 23 23 23 22 21 21 21 20 20 20 20 20 20 20 20 20 20 20 20 20 20 19 19
24 24 25 25 24 24 24 24 24 25 25 25 24 24 24 24 24 23 23 23 22 22 21 21 21 20 20 20 19 19 19 19 19 20 20 20 20 19 19 19 19 18 18
23 22 22 22 22 23 23 23 23 23 23 23 22 22 22 22 22 22 22 22 21 21 20 20 20 19 19 19 19 18 18 18 18 18 18 18 17 17 18 18 17 17 17
21 21 20 20 20 20 21 21 21 21 21 21 21 21 21 21 21 21 21 21 21 20 20 19 19 18 18 18 18 18 17 17 17 16 16 16 16 16 16 16 16 16 15
Wind_Direction
250 250 252 253 254 255 257 257 257 257 258 259 259 260 262 263 264 265 267 269 271 273 273 274 275 276 275 275 277 278 278 279 280 280 281 281 282 283 284 283 283 283 283
253 252 253 254 255 256 257 257 258 258 259 260 260 261 262 263 264 266 267 268 271 273 273 274 275 277 276 276 277 278 278 280 280 281 282 282 283 283 283 283 283 283 282
255 254 254 255 256 257 257 257 259 259 258 260 261 263 263 264 266 267 268 269 271 272 272 274 276 277 277 276 277 277 278 280 281 281 282 282 282 283 283 283 283 282 282
256 255 255 255 256 257 257 258 259 259 259 259 262 263 264 265 266 267 269 270 271 272 273 274 276 278 277 277 277 277 278 280 280 281 281 282 282 282 283 282 281 282 281
256 256 256 256 257 257 258 258 259 260 259 259 262 264 264 265 266 267 269 270 271 272 274 275 276 277 276 276 276 277 278 279 279 280 280 281 281 281 281 281 280 280 280
257 257 256 256 256 257 259 259 260 260 260 260 261 263 264 265 266 268 269 270 271 273 274 275 276 276 275 276 276 277 277 278 278 279 279 279 280 280 280 280 279 279 279
260 259 258 257 257 258 259 260 260 260 260 261 262 263 264 264 266 269 270 271 271 272 273 275 277 275 274 276 277 277 278 278 277 278 279 279 280 280 279 279 278 279 279
261 260 260 259 257 258 259 259 259 260 261 263 264 264 265 265 267 268 269 271 272 273 274 275 276 275 275 276 276 277 277 277 277 276 277 278 278 278 279 279 278 278 279
262 261 261 259 257 258 260 259 259 260 261 263 263 265 267 267 267 268 269 272 273 274 275 275 276 276 275 276 276 276 276 276 277 277 278 279 279 279 279 278 278 278 279
262 261 260 259 258 258 259 259 259 260 261 263 264 265 267 267 267 268 270 271 273 274 275 276 276 276 275 275 276 277 277 277 277 278 279 279 279 278 278 278 279 279 279
261 260 259 259 259 258 257 258 259 260 261 263 264 266 266 267 269 270 271 272 272 273 274 275 276 275 275 275 276 277 278 277 277 278 278 279 279 278 279 279 279 279 280
260 260 259 258 257 256 256 258 260 262 263 264 264 266 267 269 270 271 271 272 272 272 273 274 275 274 275 276 277 277 277 276 277 277 277 278 279 279 279 279 279 279 280
259 259 259 259 257 256 257 260 262 263 264 266 266 267 269 270 271 271 272 272 273 273 273 274 274 274 276 277 277 277 276 277 278 278 278 277 278 279 279 279 280 281 280
260 260 260 260 259 258 258 260 262 264 265 267 269 269 270 271 272 272 271 271 272 273 274 275 276 275 275 276 276 276 276 277 277 277 276 276 277 278 278 279 280 281 280
261 261 261 261 260 260 261 262 263 264 266 268 270 271 271 272 271 270 270 270 271 273 274 276 275 274 276 276 276 277 277 276 276 275 274 275 276 277 278 280 281 282 281
262 262 261 261 261 261 262 262 262 264 265 267 269 270 270 271 270 269 270 270 271 273 274 275 275 275 276 276 276 276 276 276 275 273 272 273 274 276 278 279 281 283 283
262 262 261 261 260 261 262 262 263 265 266 267 268 268 269 269 269 269 269 270 272 273 274 273 274 276 276 276 276 276 276 275 273 271 271 272 273 275 278 280 281 282 283
264 263 261 261 261 261 263 264 264 265 266 267 267 267 267 267 267 268 269 269 271 274 275 274 274 276 275 275 275 275 275 274 273 271 270 271 272 275 278 280 281 282 283
266 264 263 262 262 263 263 264 265 265 265 265 265 266 268 267 266 267 269 270 272 274 275 275 275 275 276 275 274 274 273 272 271 270 269 270 272 275 278 281 282 282 283
266 265 264 264 264 264 263 263 264 263 263 264 265 265 266 267 266 268 269 270 271 273 274 275 274 274 276 275 274 273 271 270 270 270 270 271 273 276 279 281 282 282 283
268 266 265 265 265 264 262 261 262 262 262 264 264 264 265 265 265 267 268 268 268 271 273 274 273 274 275 274 272 270 269 268 268 268 269 272 275 277 279 281 282 282 283
269 267 265 265 263 261 260 260 261 261 262 263 263 263 264 264 264 265 265 266 268 270 272 273 272 272 272 272 269 268 268 267 267 268 270 273 276 278 279 280 282 282 283
269 267 266 263 262 260 259 260 261 261 261 262 263 263 263 263 262 262 263 264 266 268 269 269 269 270 269 269 268 267 267 267 266 269 271 272 275 277 278 279 281 281 281
271 268 265 262 261 260 259 260 260 261 261 262 262 262 262 261 261 261 260 261 263 265 266 266 268 268 268 267 266 266 266 267 267 269 272 272 273 275 276 278 279 277 277
270 268 265 262 259 258 258 260 261 261 262 262 261 261 260 259 259 258 258 259 261 262 264 266 266 265 265 265 265 265 266 268 267 269 271 272 272 273 275 276 276 275 275
269 267 265 262 260 259 259 261 262 261 260 259 259 259 258 258 257 257 256 257 259 261 264 265 264 264 265 264 264 265 266 267 267 268 270 271 272 273 274 275 275 275 275
Height
5632 5635 5637 5639 5641 5642 5644 5645 5647 5648 5649 5650 5652 5653 5654 5654 5655 5656 5656 5656 5656 5656 5655 5654 5653 5652 5651 5649 5648 5647 5646 5644 5643 5642 5639 5637 5635 5632 5630 5627 5625 5622 5620
5623 5625 5627 5629 5630 5632 5634 5635 5637 5638 5639 5640 5642 5643 5643 5644 5645 5645 5646 5646 5646 5645 5645 5644 5643 5641 5640 5639 5638 5636 5635 5633 5632 5630 5628 5626 5623 5621 5619 5616 5614 5612 5610
5613 5615 5617 5618 5620 5622 5623 5625 5626 5628 5629 5630 5631 5632 5633 5634 5634 5634 5635 5635 5635 5634 5634 5633 5632 5630 5629 5628 5626 5625 5623 5622 5620 5618 5617 5614 5612 5610 5607 5605 5603 5601 5599
5603 5605 5607 5608 5610 5612 5613 5615 5616 5617 5619 5620 5621 5622 5622 5623 5623 5624 5624 5624 5624 5623 5622 5622 5620 5619 5618 5616 5615 5613 5612 5610 5608 5607 5605 5603 5601 5599 5597 5595 5593 5590 5588
5594 5595 5597 5598 5600 5601 5603 5604 5606 5607 5608 5609 5610 5611 5611 5612 5613 5613 5613 5613 5612 5612 5611 5610 5609 5607 5606 5605 5603 5602 5600 5599 5597 5595 5594 5592 5590 5588 5586 5584 5582 5580 5578
5585 5586 5587 5588 5590 5591 5592 5594 5595 5596 5597 5599 5599 5600 5601 5601 5602 5602 5602 5602 5601 5601 5600 5599 5597 5596 5594 5593 5592 5590 5589 5587 5586 5584 5583 5581 5579 5577 5575 5573 5571 5570 5568
5575 5576 5577 5578 5580 5581 5582 5583 5584 5586 5587 5588 5589 5589 5590 5590 5590 5591 5590 5590 5590 5589 5588 5587 5586 5584 5583 5582 5581 5579 5578 5576 5575 5574 5572 5570 5568 5567 5565 5563 5561 5559 5557
5566 5567 5567 5568 5570 5571 5572 5573 5574 5575 5577 5578 5578 5579 5579 5580 5580 5580 5579 5579 5579 5578 5577 5576 5574 5573 5572 5571 5570 5569 5567 5566 5564 5563 5561 5559 5557 5555 5554 5552 5550 5548 5547
5557 5557 5558 5559 5560 5561 5562 5563 5564 5565 5566 5567 5568 5568 5569 5569 5568 5568 5568 5568 5567 5567 5566 5565 5563 5562 5561 5560 5559 5558 5557 5555 5553 5551 5550 5548 5546 5545 5543 5541 5540 5538 5537
5547 5547 5548 5549 5550 5551 5552 5553 5554 5555 5556 5557 5557 5558 5558 5558 5558 5557 5557 5557 5557 5556 5555 5554 5552 5551 5550 5549 5548 5546 5545 5544 5542 5540 5538 5537 5535 5534 5532 5530 5529 5527 5526
5537 5538 5538 5539 5540 5541 5542 5543 5544 5545 5545 5546 5547 5547 5547 5547 5547 5547 5546 5546 5545 5544 5543 5542 5541 5540 5539 5538 5536 5535 5534 5532 5531 5529 5528 5526 5524 5523 5521 5520 5518 5517 5515
5528 5528 5529 5530 5530 5531 5532 5533 5534 5535 5535 5536 5536 5536 5537 5536 5536 5536 5535 5535 5534 5533 5533 5532 5531 5529 5528 5527 5526 5524 5523 5521 5520 5518 5517 5516 5514 5513 5511 5510 5508 5507 5505
5519 5519 5520 5520 5521 5522 5523 5524 5524 5525 5526 5526 5526 5527 5527 5526 5526 5525 5524 5524 5523 5522 5522 5521 5520 5519 5518 5517 5515 5514 5512 5511 5509 5508 5507 5506 5504 5503 5501 5500 5498 5497 5495
5509 5510 5510 5511 5512 5512 5513 5514 5515 5516 5516 5516 5516 5517 5516 5516 5515 5515 5514 5514 5513 5512 5512 5511 5510 5509 5508 5507 5505 5504 5502 5501 5499 5498 5497 5496 5495 5494 5492 5491 5489 5488 5486
5500 5501 5501 5502 5503 5503 5504 5505 5505 5506 5506 5507 5507 5506 5506 5506 5505 5505 5504 5504 5503 5503 5502 5501 5500 5499 5498 5497 5495 5494 5492 5490 5489 5488 5487 5487 5486 5485 5484 5482 5481 5479 5478
5491 5492 5492 5493 5493 5494 5495 5496 5496 5497 5497 5497 5496 5496 5496 5496 5495 5495 5495 5494 5494 5493 5492 5491 5491 5490 5489 5487 5486 5484 5483 5481 5480 5479 5478 5478 5477 5476 5475 5474 5472 5471 5470
5482 5483 5483 5484 5484 5485 5485 5486 5487 5487 5487 5487 5487 5487 5487 5486 5486 5486 5485 5485 5485 5484 5483 5483 5482 5481 5480 5478 5477 5475 5474 5473 5471 5471 5470 5469 5469 5468 5468 5466 5465 5464 5462
5473 5474 5474 5474 5475 5475 5476 5476 5477 5477 5478 5478 5478 5478 5477 5477 5477 5477 5476 5476 5476 5475 5475 5474 5474 5472 5471 5470 5469 5467 5466 5465 5464 5463 5463 5462 5462 5461 5460 5459 5458 5457 5455
5465 5465 5465 5465 5466 5466 5467 5467 5468 5468 5468 5469 5469 5469 5469 5469 5469 5468 5468 5468 5468 5467 5467 5466 5465 5464 5463 5462 5461 5460 5459 5458 5457 5456 5456 5455 5455 5454 5453 5452 5451 5450 5448
5456 5456 5456 5456 5457 5457 5457 5458 5458 5459 5459 5460 5460 5460 5460 5460 5460 5460 5460 5460 5460 5459 5459 5458 5457 5456 5455 5454 5453 5452 5452 5451 5450 5450 5449 5449 5448 5447 5447 5446 5444 5443 5442
5447 5447 5447 5447 5447 5447 5448 5448 5449 5450 5450 5451 5451 5451 5451 5452 5452 5452 5452 5452 5452 5451 5451 5450 5449 5449 5448 5447 5446 5446 5445 5445 5444 5444 5443 5443 5442 5441 5440 5439 5438 5437 5435
5438 5438 5438 5438 5438 5438 5439 5439 5440 5441 5441 5442 5443 5443 5443 5443 5443 5443 5444 5444 5444 5444 5443 5443 5442 5442 5441 5441 5440 5440 5439 5439 5438 5438 5437 5437 5436 5435 5434 5433 5432 5431 5429
5429 5429 5429 5429 5429 5429 5430 5431 5431 5432 5433 5433 5434 5434 5434 5434 5435 5435 5436 5436 5436 5436 5436 5436 5436 5435 5435 5434 5434 5434 5433 5433 5432 5432 5431 5431 5430 5429 5428 5427 5426 5425 5424
5420 5420 5420 5420 5421 5421 5422 5422 5423 5423 5424 5424 5425 5425 5426 5426 5427 5427 5428 5428 5429 5429 5429 5429 5429 5429 5429 5428 5428 5428 5427 5427 5426 5426 5425 5425 5424 5423 5422 5422 5421 5419 5418
5412 5412 5412 5412 5413 5413 5414 5414 5415 5415 5416 5416 5417 5417 5418 5418 5419 5420 5421 5421 5422 5422 5422 5422 5422 5422 5422 5422 5422 5422 5422 5421 5420 5420 5419 5419 5418 5418 5417 5416 5415 5414 5413
5404 5404 5405 5405 5405 5406 5406 5407 5407 5408 5408 5409 5409 5410 5411 5411 5412 5413 5414 5415 5415 5416 5416 5416 5416 5416 5416 5416 5416 5416 5416 5416 5415 5415 5414 5414 5413 5413 5412 5411 5411 5410 5409